Weather in Ozernoye

Russia / Jewish Autonomous Oblast     47°44′59″N   131°08′09″E
temp.,
°C
wind,
m/s
gust,
m/s
humid.,
%
clouds,
%
prec.,
mm/h
press.,
hPa
HPBL,
m
8 may, sat
sat801:00+8ne61088100 0.0 990610
04:00+7ne6984100 0.2 991615
07:00+5nne61086100 0.4 992523
10:00+5ne6989100 0.6 994464
13:00+4ne6891100 0.1 995513
16:00+4ne4792100 0.6 995479
19:00+6ne71391100 0.5 993573
22:00+7ene91689100 2.9 992584
9 may, sun
sun901:00+6ne81692100 6.7 992714
04:00+5ne111892100 16.5 990803
07:00+5ne91591100 5.7 992864
10:00+5ne81490100 6.9 994793
13:00+5ne61191100 0.4 997662
16:00+6n61090100 1.9 999700
19:00+5nnw61094100 2.7 1001498
22:00+5n5994100 4.3 1004460
10 may, mon
mon1001:00+6n4992100 0.4 1005463
04:00+5nne4791100 0.8 1007406
07:00+5n2492100 0.1 1009155
10:00+6n1191100 0.4 1011126
13:00+7w1283100 0.1 1012483
16:00+9wsw337998 0.1 1012676
19:00+9w3378100 0.1 1013549
22:00+7nw229098 0.1 101431
11 may, tue
tue1101:00+6w2291100 0.0 101423
04:00+6w1191100 0.1 101521
07:00+7wnw1189100 0.0 101624
10:00+9ese1180100 0.0 1016313
13:00+10se227699 0.1 1016675
16:00+10ese3475100 0.3 1016597
19:00+11ese457191 0.0 1015871
22:00+7ese4990100 0.0 1015208
12 may, wed
wed1201:00+7ese51286100 0.0 1014308
04:00+7ese61385100 0.0 1012412
07:00+7ese71481100 0.0 1010551
10:00+8se51086100 2.8 1008608
13:00+11se71078100 1.3 1006908
16:00+15se91471100 1.9 10021367
19:00+15sse81273100 3.4 1001449
22:00+11sse359098 5.9 100388